Location: Boca do Mato
(22.9085°S, 43.2930°W)
Time: 22:19:15
(UTC+00:00)

Aurora 2 Rocket - Pass Details

Date: 14 July 2020
Orbit: 390 x 1744 km, 25.0° (Epoch: 10 August)

Event Time Altitude Azimuth Distance (km) Brightness Sun altitude
Exits shadow 06:48:03 73° 133° (SE) 1,501 4.3 -37.4°
Drops below altitude 10° 06:55:22 10° 94° (E) 3,103 6.8 -35.7°
Sets 06:57:49 0° 92° (E) 3,883 7.6 -35.1°
